Falconara, Italy

7:04 AM CEST on July 28, 2017 (GMT +0200)
Falconara Mil

Weather History for LIPY - December, 2012

Change the Weather History Date:

Tuesday, December 4, 2012

  Actual Average Record
Temperature  
Mean Temperature 45 °F -  
Max Temperature 55 °F 48 °F 66 °F (2011)
Min Temperature 35 °F 37 °F 32 °F (1996)
Degree Days  
Heating Degree Days 20    
Moisture  
Dew Point 37 °F    
Average Humidity 75    
Maximum Humidity 93    
Minimum Humidity 49    
Precipitation  
Precipitation 0.00 in 0.09 in - ()
Sea Level Pressure  
Sea Level Pressure 29.67 in    
Wind  
Wind Speed 6 mph ()    
Max Wind Speed 16 mph    
Max Gust Speed -    
Visibility 6.1 miles    
Events Rain    
Averages and records for this station are not official NWS values.
T = Trace of Precipitation, MM = Missing Value Source: Averaged Metar Reports

Daily Weather History Graph

Daily Weather History Graph

Search for Another Location

Airport or City:

Trip Planner

Search our weather history database for the weather conditions in past years. The results will help you decide how hot, cold, wet, or windy it might be!

Date:

Astronomy

Dec. 04, 2012 Rise Set
Actual Time 7:23 AM CET 4:30 PM CET
Civil Twilight 6:51 AM CET 5:02 PM CET
Nautical Twilight 6:15 AM CET 5:38 PM CET
Astronomical Twilight 5:40 AM CET 6:12 PM CET
Moon 10:06 PM CET (12/4) 11:03 AM CET (12/4)
Length of Visible Light 10h 11m
Length of Day
9h 06m
Waning Gibbous, 72% of the Moon is Illuminated
Dec 4
Waning Gibbous
Dec 6
Last Quarter
Dec 13
New
Dec 20
First Quarter
Dec 28
Full

Hourly Weather History & Observations

Time (CET) Temp. Windchill Dew Point Humidity Pressure Visibility Wind Dir Wind Speed Gust Speed Precip Events Conditions
12:50 AM 41.0 °F 35.8 °F 23.0 °F 49% 29.95 in - South 8.1 mph - N/A   Clear
1:50 AM 41.0 °F 35.8 °F 24.8 °F 53% 29.92 in - SSE 8.1 mph - N/A   Clear
2:50 AM 41.0 °F 36.4 °F 26.6 °F 57% 29.92 in - SSE 6.9 mph - N/A   Clear
3:50 AM 39.2 °F 33.6 °F 26.6 °F 61% 29.86 in - SSE 8.1 mph - N/A   Clear
4:50 AM 35.6 °F 32.8 °F 28.4 °F 75% 29.83 in - WSW 3.5 mph - N/A   Clear
5:50 AM 35.6 °F 32.8 °F 30.2 °F 81% 29.80 in - SW 3.5 mph - N/A   Clear
6:50 AM 37.4 °F - 32.0 °F 81% 29.80 in 6.2 mi Variable 1.2 mph - N/A   Mostly Cloudy
7:50 AM 39.2 °F 35.9 °F 32.0 °F 75% 29.77 in 6.2 mi SSW 4.6 mph - N/A   Scattered Clouds
8:50 AM 41.0 °F 38.0 °F 33.8 °F 76% 29.74 in 6.2 mi South 4.6 mph - N/A   Scattered Clouds
9:50 AM 42.8 °F 40.1 °F 33.8 °F 70% 29.74 in 6.2 mi WSW 4.6 mph - N/A   Scattered Clouds
10:50 AM 44.6 °F 43.1 °F 35.6 °F 71% 29.71 in 6.2 mi WSW 3.5 mph - N/A   Scattered Clouds
11:50 AM 44.6 °F - 37.4 °F 76% 29.65 in 6.2 mi Variable 2.3 mph - N/A   Scattered Clouds
12:50 PM 48.2 °F - 39.2 °F 71% 29.62 in 6.2 mi South 4.6 mph - N/A   Scattered Clouds
1:50 PM 53.6 °F - 39.2 °F 58% 29.56 in 6.2 mi Variable 2.3 mph - N/A   Scattered Clouds
2:50 PM 55.4 °F - 44.6 °F 67% 29.53 in 6.2 mi SSW 15.0 mph - N/A   Scattered Clouds
3:50 PM 55.4 °F - 42.8 °F 63% 29.50 in 6.2 mi SSW 5.8 mph - N/A   Mostly Cloudy
4:50 PM 53.6 °F - 42.8 °F 67% 29.50 in 6.2 mi Variable 2.3 mph - N/A   Mostly Cloudy
5:30 PM 51.8 °F - 46.4 °F 82% 29.50 in 5.0 mi WNW 11.5 mph - N/A Rain Rain
5:50 PM 50.0 °F - 46.4 °F 87% 29.53 in 5.0 mi West 11.5 mph - N/A Rain Rain
6:50 PM 44.6 °F 37.4 °F 42.8 °F 93% 29.53 in 6.2 mi NNW 16.1 mph - N/A   Scattered Clouds
7:50 PM 44.6 °F 39.7 °F 41.0 °F 87% 29.53 in 6.2 mi WNW 9.2 mph - N/A Rain Light Rain
8:50 PM 44.6 °F 38.8 °F 42.8 °F 93% 29.56 in 6.2 mi NW 11.5 mph - N/A Rain Light Rain
9:50 PM 44.6 °F 41.4 °F 42.8 °F 93% 29.53 in 6.2 mi NW 5.8 mph - N/A Rain Light Rain
10:50 PM 44.6 °F 39.7 °F 42.8 °F 93% 29.56 in 6.2 mi NW 9.2 mph - N/A Rain Light Rain
11:50 PM 42.8 °F 38.6 °F 39.2 °F 87% 29.56 in 6.2 mi West 6.9 mph - N/A   Mostly Cloudy